This is the latest recevied weather packets stored in our database for station/object K9APR. If no packets are shown the sender has not sent any weather packets the latest 10 day(s).
| Time | Temp. | Humidity | Pressure | Rain* | Wind** | Luminosity | Snow |
|---|---|---|---|---|---|---|---|
| 1778119640 | 7.78° C | 80% | 1015.8 hPa | 0 mm | - | - | - |
| 1778119344 | 7.78° C | 80% | 1015.8 hPa | 0 mm | - | - | - |
| 1778118803 | 7.78° C | 79% | 1015.7 hPa | 0 mm | - | - | - |
| 1778118264 | 8.33° C | 78% | 1015.6 hPa | 0 mm | - | - | - |
| 1778117722 | 8.89° C | 77% | 1015.5 hPa | 0 mm | - | - | - |
| 1778117182 | 9.44° C | 77% | 1015.3 hPa | 0 mm | - | - | - |
| 1778116643 | 9.44° C | 74% | 1015.2 hPa | 0 mm | - | - | - |
| 1778116102 | 10° C | 73% | 1015.1 hPa | 0 mm | - | - | - |
| 1778115563 | 10.56° C | 70% | 1015.1 hPa | 0 mm | - | - | - |
| 1778115023 | 10.56° C | 70% | 1015.1 hPa | 0 mm | - | - | - |
| 1778114483 | 11.11° C | 69% | 1015.1 hPa | 0 mm | - | - | - |
| 1778113943 | 11.11° C | 68% | 1014.9 hPa | 0 mm | - | - | - |
| 1778113404 | 11.11° C | 68% | 1014.8 hPa | 0 mm | - | - | - |
| 1778112865 | 11.67° C | 65% | 1014.6 hPa | 0 mm | - | - | - |
| 1778112324 | 12.22° C | 62% | 1014.6 hPa | 0 mm | - | - | - |
| 1778111782 | 12.78° C | 61% | 1014.5 hPa | 0 mm | - | - | - |
| 1778111243 | 12.78° C | 60% | 1014.3 hPa | 0 mm | - | - | - |
| 1778110703 | 12.78° C | 64% | 1014.3 hPa | 0 mm | - | - | - |
| 1778110162 | 12.78° C | 60% | 1014.5 hPa | 0 mm | - | - | - |
| 1778109623 | 12.78° C | 62% | 1014.5 hPa | 0 mm | - | - | - |
| 1778109082 | 12.78° C | 64% | 1014.5 hPa | 0 mm | - | - | - |
| 1778108545 | 12.22° C | 65% | 1014.5 hPa | 0 mm | - | - | - |
| 1778108002 | 12.22° C | 65% | 1014.6 hPa | 0 mm | - | - | - |
| 1778107464 | 12.22° C | 64% | 1014.6 hPa | 0 mm | - | - | - |
| 1778106923 | 12.22° C | 65% | 1014.9 hPa | 0 mm | - | - | - |
* Rain latest hour (hover to see other rain measurements)
** Current wind speed in m/s (hover to see current wind gust speed)